Location: Gilevgi
(36.8751°N, 30.0581°E)
Time: 21:38:42
(UTC+00:00)

Helios 1A Rocket - Pass Details

Date: 11 December 2025
Orbit: 433 x 443 km, 98.3° (Epoch: 12 January)

Event Time Altitude Azimuth Distance (km) Brightness Sun altitude
Rises 04:37:44 0° 209° (SSW) 2,398 6.1 -5.3°
Reaches altitude 10° 04:40:48 10° 241° (WSW) 1,541 4.8 -4.7°
Drops below altitude 10° 04:43:30 10° 290° (WNW) 1,550 4.4 -4.2°
Enters shadow 04:45:23 - 314° (NW) 2,023 5.1 -3.9°
Exits shadow 05:09:57 -51° 8° (N) 10,533 9.2 0.5°
Maximum altitude 16:04:59 33° 99° (E) 790 3.1 -15.8°
